Regional Weather Roundup
Issued by NWS

Home | Current Version | Previous Version | Text Only | Print | Product List | Glossary On
Versions: 1 2 3 4 5 6 7 8 9 10 11 12 13 14 15 16 17 18 19 20 21 22 23 24 25 26 27 28 29 30 31 32 33 34 35 36 37 38 39 40 41 42 43 44 45 46 47 48 49 50
000
ASUS46 KSEW 100310
RWRWA

WASHINGTON REGIONAL WEATHER ROUNDUP
NATIONAL WEATHER SERVICE SEATTLE WA
800 PM PDT WED JUL 09 2014

NOTE:"FAIR" INDICATES FEW OR NO CLOUDS BELOW 12,000 FEET WITH NO
SIGNIFICANT WEATHER AND/OR OBSTRUCTIONS TO VISIBILITY.

WAZ505-507>509-100400-
SEATTLE, TACOMA, EVERETT, AND VICINITY

CITY           SKY/WX    TMP DP  RH WIND       PRES   REMARKS
EVERETT        CLEAR     72  53  51 VRB3      29.95F
BOEING FIELD   CLEAR     79  56  45 NW3       29.92S
RENTON         CLEAR     79  60  52 NW7       29.91S
SEATAC AIRPORT CLEAR     77  56  48 W5        29.95S
JBLM-MCCHORD   CLEAR     76  59  56 W8        29.94S
PUYALLUP       FAIR      75  55  50 CALM      29.95S
JBLM-FT LEWIS  CLEAR     73  56  54 W12       29.94S
TACOMA NARROWS CLEAR     74  56  53 SW9       29.94S
$$

WAZ001-503-506-510-514-515-100400-
NORTH INTERIOR

CITY           SKY/WX    TMP DP  RH WIND       PRES   REMARKS
BELLINGHAM     CLEAR     73  53  49 CALM      29.93F
FRIDAY HARBOR  CLEAR     64  53  67 SW7       29.95S
EASTSOUND      CLEAR     72  54  53 CALM      29.92F
PORT ANGELES   CLEAR     62  54  74 CALM      29.96S
NAS WHIDBEY    PTCLDY    62  54  74 W6        29.95F
BURLINGTON     CLEAR     72  57  60 NW5       29.94F
$$

WAZ020-022-039-040-504-511-512-100400-
SOUTHWEST INTERIOR

CITY           SKY/WX    TMP DP  RH WIND       PRES   REMARKS
SHELTON        CLEAR     68  53  58 SW14      29.93S
OLYMPIA        CLEAR     72  50  45 N8        29.95R
CHEHALIS       FAIR      70  57  64 SW5       29.96S
KELSO          CLEAR     66  54  63 W7        29.99S
VANCOUVER      CLEAR     76  54  46 N9        29.91R
SCAPPOOSE, OR  CLEAR     74  53  48 NW10      29.91S
PORTLAND, OR   CLEAR     76  56  49 NW10      29.91R
$$

WAZ021-516-517-100400-
WASHINGTON COAST

CITY           SKY/WX    TMP DP  RH WIND       PRES   REMARKS
FORKS          MOSUNNY   59  55  87 W5        29.98F FOG
HOQUIAM        CLOUDY    59  54  83 W10       30.00F
ASTORIA, OR    CLOUDY    61  52  72 NW10      30.01F
$$

WAZ019-023-024-040-518-519-100400-
CASCADE MOUNTAINS AND COLUMBIA GORGE

CITY           SKY/WX    TMP DP  RH WIND       PRES   REMARKS
STAMPEDE PASS  NOT AVBL
TROUTDALE, OR  CLEAR     77  58  51 VRB6      29.89R
THE DALLES, OR CLEAR     84  55  36 NW17G29   29.75R
$$

WAZ026-027-041>044-520-521-100400-
EAST SLOPES

CITY           SKY/WX    TMP DP  RH WIND       PRES   REMARKS
OMAK           CLEAR     91  31  11 NW10      29.68S
WENATCHEE      NOT AVBL
ELLENSBURG     CLEAR     80  48  32 NW23G33   29.82R
YAKIMA         CLEAR     90  44  20 N12G21    29.75R
$$

WAZ028-034-035-100400-
COLUMBIA BASIN

CITY           SKY/WX    TMP DP  RH WIND       PRES   REMARKS
EPHRATA        CLEAR     94  24   8 W17       29.71S
MOSES LAKE     CLEAR     92  48  22 SW8       29.71S
HANFORD        NOT AVBL
PASCO          CLEAR     97  49  19 S9        29.68S HX  94
HERMISTON, OR  CLEAR     93  44  18 SW8       29.71R
$$

WAZ036>038-100400-
NORTHEAST WASHINGTON

CITY           SKY/WX    TMP DP  RH WIND       PRES   REMARKS
SPOKANE GEIGER PTCLDY    87  24  10 SW10      29.79S
SPOKANE FELTS  CLEAR     90  24   9 SW9       29.76F
FAIRCHILD AFB  CLEAR     83  35  18 SW8       29.80F
COEURDALENE,ID CLEAR     77  54  44 S8        29.76F
DEER PARK      CLEAR     84  39  20 S7        29.77S
$$

WAZ029>033-100400-
SOUTHEAST WASHINGTON

CITY           SKY/WX    TMP DP  RH WIND       PRES   REMARKS
PULLMAN        CLEAR     83  46  27 CALM      29.84S
LEWISTON, ID   CLEAR     94  33  11 NW8       29.74S
WALLA WALLA    CLEAR     92  38  15 SW6       29.75F
PENDLETON, OR  CLEAR     92  34  13 W7        29.77S
$$


USA.gov is the U.S. government's official web portal to all federal, state and local government web resources and services.